Weather History for Cozumel, Mexico

Change the Weather History Date:

Wednesday, October 24, 2012

  Actual Average Record
Temperature  
Mean Temperature 78 °F -  
Max Temperature 82 °F 85 °F 89 °F (1997)
Min Temperature 75 °F 74 °F 68 °F (2007)
Cooling Degree Days 14    
Growing Degree Days 28 (Base 50)    
Moisture  
Dew Point 71 °F    
Average Humidity 79    
Maximum Humidity 94    
Minimum Humidity 70    
Precipitation  
Precipitation 0.00 in - - ()
Sea Level Pressure  
Sea Level Pressure 29.82 in    
Wind  
Wind Speed 10 mph ()    
Max Wind Speed 16 mph    
Max Gust Speed -    
Visibility 7.2 miles    
Events      
Averages and records for this station are not official NWS values.
T = Trace of Precipitation, MM = Missing Value Source: Averaged Metar Reports

Daily Weather History Graph

Daily Weather History Graph

Search for Another Location

Airport:

Trip Planner

Search our weather history database for the weather conditions in past years. The results will help you decide how hot, cold, wet, or windy it might be!

Date:

Astronomy

Oct. 24, 2012 Rise Set
Actual Time 6:46 AM CDT 6:16 PM CDT
Civil Twilight 6:23 AM CDT 6:39 PM CDT
Nautical Twilight 5:57 AM CDT 7:05 PM CDT
Astronomical Twilight 5:32 AM CDT 7:31 PM CDT
Moon 3:00 PM CDT (10/24) 2:17 AM CDT (10/24)
Length of Visible Light 12h 15m
Length of Day
11h 30m
Waxing Gibbous, 76% of the Moon is Illuminated
Oct 24
Waxing Gibbous
Oct 29
Full
Nov 6
Last Quarter
Nov 13
New
Nov 20
First Quarter

Hourly Weather History & Observations

Time (CDT) Temp. Heat Index Dew Point Humidity Pressure Visibility Wind Dir Wind Speed Gust Speed Precip Events Conditions
12:48 AM 77.0 °F - 71.6 °F 83% 29.84 in 7.0 mi ENE 10.4 mph - N/A   Scattered Clouds
1:40 AM 77.0 °F - 73.4 °F 89% 29.83 in 7.0 mi ENE 12.7 mph - N/A   Scattered Clouds
2:46 AM 77.0 °F - 71.6 °F 83% 29.82 in 7.0 mi ENE 10.4 mph - N/A   Scattered Clouds
3:42 AM 77.0 °F - 71.6 °F 83% 29.84 in 7.0 mi ENE 10.4 mph - N/A   Partly Cloudy
4:53 AM 77.0 °F - 69.8 °F 78% 29.81 in 7.0 mi ENE 11.5 mph - N/A   Partly Cloudy
5:51 AM 77.0 °F - 71.6 °F 83% 29.82 in 7.0 mi ENE 10.4 mph - N/A   Partly Cloudy
6:51 AM 75.2 °F - 69.8 °F 83% 29.81 in 7.0 mi NE 8.1 mph - N/A   Partly Cloudy
7:46 AM 77.0 °F - 69.8 °F 78% 29.85 in 7.0 mi NE 6.9 mph - N/A   Partly Cloudy
8:41 AM 78.8 °F - 71.6 °F 78% 29.86 in 7.0 mi East 6.9 mph - N/A   Clear
9:43 AM 80.6 °F 84.6 °F 71.6 °F 74% 29.90 in 7.0 mi NE 11.5 mph - N/A   Clear
10:47 AM 82.4 °F 87.2 °F 71.6 °F 70% 29.87 in 7.0 mi NE 12.7 mph - N/A   Scattered Clouds
11:46 AM 77.0 °F - 71.6 °F 83% 29.86 in 7.0 mi NE 13.8 mph - N/A   Scattered Clouds
12:48 PM 82.4 °F 87.2 °F 71.6 °F 70% 29.79 in 7.0 mi NE 13.8 mph - N/A   Scattered Clouds
1:48 PM 82.4 °F 87.2 °F 71.6 °F 70% 29.80 in 7.0 mi NNE 16.1 mph - N/A   Partly Cloudy
2:45 PM 82.4 °F 87.2 °F 71.6 °F 70% 29.79 in 8.0 mi NNE 16.1 mph - N/A   Scattered Clouds
3:43 PM 82.4 °F 87.2 °F 71.6 °F 70% 29.81 in 8.0 mi NNE 13.8 mph - N/A   Partly Cloudy
4:46 PM 80.6 °F 83.9 °F 69.8 °F 70% 29.79 in 8.0 mi NNE 13.8 mph - N/A   Partly Cloudy
5:51 PM 78.8 °F - 69.8 °F 74% 29.79 in 8.0 mi NNE 13.8 mph - N/A   Partly Cloudy
6:48 PM 77.0 °F - 69.8 °F 78% 29.77 in 7.0 mi NNE 9.2 mph - N/A   Partly Cloudy
7:54 PM 77.0 °F - 68.0 °F 74% 29.81 in 7.0 mi NNE 11.5 mph - N/A   Partly Cloudy
8:44 PM 77.0 °F - 69.8 °F 78% 29.82 in 7.0 mi North 11.5 mph - N/A   Partly Cloudy
9:47 PM 77.0 °F - 71.6 °F 83% 29.86 in 7.0 mi North 8.1 mph - N/A   Scattered Clouds
10:47 PM 75.2 °F - 71.6 °F 89% 29.83 in 7.0 mi North 6.9 mph - N/A   Partly Cloudy
11:47 PM 75.2 °F - 73.4 °F 94% 29.82 in 7.0 mi North 6.9 mph - N/A   Partly Cloudy